• în Republica Moldova
  • Lista ţărilor
  • Pe 7 zile
  • Temperatura apei
  • Hartă satelitară
  • Meteo pe hartă
  • Widget-uri
  • user-avatar
    Intrare

    Meteo pe oră la Coasta de Aur

    Astăzi, 25 Iulie, Marţi

    Timp Temperatura Precipitaţii Vânt Presiune Umiditate
    00:00 +13°C° 0 mm 2 m/s 762 mmHg 52%
    01:00 +12°C° 0 mm 3 m/s 762 mmHg 53%
    02:00 +11°C° 0 mm 3 m/s 762 mmHg 54%
    03:00 +11°C° 0 mm 3 m/s 762 mmHg 54%
    04:00 +10°C° 0 mm 3 m/s 762 mmHg 55%
    05:00 +10°C° 0 mm 3 m/s 762 mmHg 55%
    06:00 +10°C° 0 mm 3 m/s 763 mmHg 55%
    07:00 +10°C° 0 mm 3 m/s 763 mmHg 56%
    08:00 +14°C° 0 mm 2 m/s 763 mmHg 49%
    09:00 +17°C° 0 mm 2 m/s 763 mmHg 43%
    10:00 +20°C° 0 mm 2 m/s 763 mmHg 37%
    11:00 +23°C° 0 mm 1 m/s 763 mmHg 34%
    12:00 +24°C° 0 mm 1 m/s 762 mmHg 32%
    13:00 +25°C° 0 mm 1 m/s 762 mmHg 29%
    14:00 +24°C° 0 mm 2 m/s 762 mmHg 33%
    15:00 +23°C° 0 mm 2 m/s 761 mmHg 37%
    16:00 +23°C° 0 mm 2 m/s 761 mmHg 41%
    17:00 +19°C° 0 mm 2 m/s 762 mmHg 52%
    18:00 +17°C° 0 mm 2 m/s 762 mmHg 63%
    19:00 +15°C° 0 mm 1 m/s 762 mmHg 73%
    20:00 +14°C° 0 mm 1 m/s 763 mmHg 76%
    21:00 +14°C° 0 mm 1 m/s 763 mmHg 79%
    22:00 +13°C° 0 mm 1 m/s 763 mmHg 82%
    23:00 +13°C° 0 mm 1 m/s 763 mmHg 82%

    Mâine, 26 Iulie, Miercuri

    Timp Temperatura Precipitaţii Vânt Presiune Umiditate
    00:00 +12°C° 0 mm 1 m/s 763 mmHg 81%
    01:00 +12°C° 0 mm 2 m/s 763 mmHg 80%
    02:00 +12°C° 0 mm 2 m/s 762 mmHg 77%
    03:00 +10°C° 0 mm 2 m/s 762 mmHg 74%
    04:00 +10°C° 0 mm 2 m/s 762 mmHg 71%
    05:00 +10°C° 0 mm 2 m/s 762 mmHg 68%
    06:00 +10°C° 0 mm 2 m/s 763 mmHg 65%
    07:00 +10°C° 0 mm 2 m/s 763 mmHg 61%
    08:00 +14°C° 0 mm 2 m/s 763 mmHg 53%
    09:00 +18°C° 0 mm 2 m/s 763 mmHg 44%
    10:00 +22°C° 0 mm 1 m/s 763 mmHg 36%
    11:00 +23°C° 0 mm 2 m/s 762 mmHg 33%
    12:00 +25°C° 0 mm 2 m/s 762 mmHg 30%
    13:00 +26°C° 0 mm 2 m/s 761 mmHg 27%
    14:00 +26°C° 0 mm 2 m/s 761 mmHg 31%
    15:00 +25°C° 0 mm 3 m/s 760 mmHg 35%
    16:00 +25°C° 0 mm 3 m/s 760 mmHg 39%
    17:00 +22°C° 0 mm 3 m/s 760 mmHg 43%
    18:00 +20°C° 0 mm 3 m/s 761 mmHg 46%
    19:00 +17°C° 0 mm 3 m/s 761 mmHg 49%
    20:00 +17°C° 0 mm 3 m/s 762 mmHg 51%
    21:00 +16°C° 0 mm 3 m/s 762 mmHg 53%
    22:00 +14°C° 0 mm 3 m/s 762 mmHg 54%
    23:00 +14°C° 0 mm 4 m/s 762 mmHg 55%

    Poimâine, 27 Iulie, Joi

    Timp Temperatura Precipitaţii Vânt Presiune Umiditate
    00:00 +13°C° 0 mm 4 m/s 762 mmHg 56%
    01:00 +13°C° 0 mm 4 m/s 762 mmHg 57%
    02:00 +12°C° 0 mm 4 m/s 762 mmHg 59%
    03:00 +12°C° 0 mm 5 m/s 762 mmHg 62%
    04:00 +10°C° 0 mm 5 m/s 762 mmHg 64%
    05:00 +10°C° 0 mm 5 m/s 762 mmHg 65%
    06:00 +9°C° 0 mm 5 m/s 763 mmHg 67%
    07:00 +10°C° 0 mm 4 m/s 764 mmHg 69%
    08:00 +12°C° 0 mm 4 m/s 764 mmHg 60%
    09:00 +15°C° 0 mm 4 m/s 764 mmHg 52%
    10:00 +19°C° 0 mm 4 m/s 764 mmHg 43%
    11:00 +20°C° 0 mm 4 m/s 764 mmHg 41%
    12:00 +21°C° 0 mm 4 m/s 763 mmHg 38%
    13:00 +22°C° 0 mm 4 m/s 763 mmHg 36%
    14:00 +21°C° 0 mm 4 m/s 763 mmHg 40%
    15:00 +20°C° 0 mm 4 m/s 762 mmHg 44%
    16:00 +20°C° 0 mm 4 m/s 762 mmHg 48%
    17:00 +18°C° 0 mm 4 m/s 763 mmHg 58%
    18:00 +16°C° 0 mm 3 m/s 764 mmHg 68%
    19:00 +13°C° 0 mm 3 m/s 764 mmHg 78%
    20:00 +13°C° 0 mm 3 m/s 765 mmHg 81%
    21:00 +13°C° 0 mm 2 m/s 765 mmHg 85%
    22:00 +13°C° 0 mm 2 m/s 765 mmHg 88%
    23:00 +12°C° 0 mm 2 m/s 765 mmHg 90%

    28 Iulie, Vineri

    Timp Temperatura Precipitaţii Vânt Presiune Umiditate
    00:00 +12°C° 0 mm 2 m/s 765 mmHg 91%
    01:00 +12°C° 0 mm 2 m/s 764 mmHg 92%
    02:00 +12°C° 0 mm 2 m/s 764 mmHg 92%
    03:00 +10°C° 0 mm 2 m/s 764 mmHg 92%
    04:00 +10°C° 0 mm 2 m/s 764 mmHg 92%
    05:00 +10°C° 0 mm 2 m/s 764 mmHg 91%
    06:00 +12°C° 0 mm 2 m/s 765 mmHg 90%
    07:00 +12°C° 0 mm 2 m/s 765 mmHg 89%
    08:00 +14°C° 0 mm 2 m/s 765 mmHg 79%
    09:00 +17°C° 0 mm 2 m/s 765 mmHg 68%
    10:00 +20°C° 0 mm 2 m/s 765 mmHg 58%
    11:00 +21°C° 0 mm 2 m/s 764 mmHg 51%
    12:00 +23°C° 0 mm 2 m/s 763 mmHg 44%
    13:00 +24°C° 0 mm 3 m/s 763 mmHg 37%
    14:00 +24°C° 0 mm 3 m/s 762 mmHg 38%
    15:00 +24°C° 0 mm 3 m/s 762 mmHg 40%
    16:00 +24°C° 0 mm 3 m/s 762 mmHg 41%
    17:00 +20°C° 0 mm 3 m/s 762 mmHg 48%
    18:00 +18°C° 0 mm 3 m/s 763 mmHg 55%
    19:00 +16°C° 0 mm 3 m/s 763 mmHg 63%
    20:00 +14°C° 0 mm 3 m/s 763 mmHg 63%
    21:00 +14°C° 0 mm 4 m/s 763 mmHg 63%
    22:00 +13°C° 0 mm 4 m/s 764 mmHg 63%
    23:00 +13°C° 0 mm 4 m/s 764 mmHg 61%

    29 Iulie, Sâmbătă

    Timp Temperatura Precipitaţii Vânt Presiune Umiditate
    00:00 +12°C° 0 mm 3 m/s 763 mmHg 59%
    01:00 +12°C° 0 mm 3 m/s 763 mmHg 57%
    02:00 +12°C° 0 mm 3 m/s 763 mmHg 57%
    03:00 +13°C° 0 mm 2 m/s 763 mmHg 56%
    04:00 +13°C° 0 mm 2 m/s 763 mmHg 55%
    05:00 +13°C° 0 mm 2 m/s 763 mmHg 56%
    06:00 +13°C° 0 mm 2 m/s 764 mmHg 56%
    07:00 +13°C° 0 mm 2 m/s 764 mmHg 56%
    08:00 +16°C° 0 mm 1 m/s 764 mmHg 49%
    09:00 +21°C° 0 mm 1 m/s 764 mmHg 42%
    10:00 +24°C° 0 mm 1 m/s 764 mmHg 36%
    11:00 +25°C° 0 mm 1 m/s 763 mmHg 33%
    12:00 +26°C° 0 mm 1 m/s 762 mmHg 31%
    13:00 +28°C° 0 mm 2 m/s 762 mmHg 29%
    14:00 +27°C° 0 mm 2 m/s 762 mmHg 33%
    15:00 +26°C° 0 mm 3 m/s 761 mmHg 37%
    16:00 +25°C° 0 mm 3 m/s 761 mmHg 41%
    17:00 +21°C° 0 mm 3 m/s 762 mmHg 49%
    18:00 +19°C° 0 mm 3 m/s 762 mmHg 56%
    19:00 +17°C° 0 mm 3 m/s 762 mmHg 63%
    20:00 +16°C° 0 mm 3 m/s 763 mmHg 65%
    21:00 +16°C° 0 mm 3 m/s 763 mmHg 66%
    22:00 +14°C° 0 mm 3 m/s 763 mmHg 68%
    23:00 +14°C° 0 mm 3 m/s 763 mmHg 67%

    30 Iulie, Duminică

    Timp Temperatura Precipitaţii Vânt Presiune Umiditate
    00:00 +14°C° 0 mm 3 m/s 763 mmHg 67%
    01:00 +13°C° 0 mm 3 m/s 763 mmHg 66%
    02:00 +13°C° 0 mm 3 m/s 763 mmHg 66%
    03:00 +13°C° 0 mm 3 m/s 763 mmHg 66%
    04:00 +13°C° 0 mm 3 m/s 763 mmHg 66%
    05:00 +13°C° 0 mm 3 m/s 763 mmHg 67%
    06:00 +13°C° 0 mm 3 m/s 763 mmHg 68%
    07:00 +12°C° 0 mm 3 m/s 764 mmHg 69%
    08:00 +16°C° 0 mm 3 m/s 764 mmHg 61%
    09:00 +19°C° 0 mm 3 m/s 764 mmHg 53%
    10:00 +22°C° 0 mm 3 m/s 764 mmHg 45%
    11:00 +23°C° 0 mm 4 m/s 763 mmHg 41%
    12:00 +26°C° 0 mm 4 m/s 762 mmHg 38%
    13:00 +27°C° 0 mm 4 m/s 762 mmHg 35%
    14:00 +26°C° 0 mm 4 m/s 762 mmHg 39%
    15:00 +25°C° 0 mm 4 m/s 762 mmHg 44%
    16:00 +25°C° 0 mm 5 m/s 762 mmHg 49%
    17:00 +22°C° 0 mm 5 m/s 762 mmHg 60%
    18:00 +20°C° 0 mm 5 m/s 762 mmHg 71%
    19:00 +17°C° 0 mm 5 m/s 763 mmHg 83%
    20:00 +17°C° 0 mm 5 m/s 763 mmHg 84%
    21:00 +16°C° 0 mm 5 m/s 763 mmHg 86%
    22:00 +16°C° 0 mm 5 m/s 763 mmHg 87%
    23:00 +16°C° 0 mm 5 m/s 763 mmHg 88%
    Arată mai mult